N9DRW Weather Reports


Display with metric or nautical units.
time (UTC)temp
F
wind
direction
speed
MPH
gust
MPH
rain 1hr
in
rain 24hr
in
rain mn
in
humidity
%
barometer
mb
20260509180206 66 315 9.0 25.0 0.00 0.00 0.00 36
20260509175206 65 323 12.0 22.0 0.00 0.00 0.00 37
20260509174205 66 12 12.0 24.0 0.00 0.00 0.00 39
20260509173206 65 321 8.0 24.0 0.00 0.00 0.00 40
20260509172205 65 350 8.0 22.0 0.00 0.00 0.00 41
20260509171206 65 343 9.0 25.0 0.00 0.00 0.00 41
20260509165206 63 305 10.0 23.0 0.00 0.00 0.00 41
20260509164206 63 301 7.0 15.0 0.00 0.00 0.00 40
20260509163209 63 325 9.0 16.0 0.00 0.00 0.00 38
20260509161205 62 324 7.0 21.0 0.00 0.00 0.00 39
20260509160206 62 263 5.0 12.0 0.00 0.00 0.00 40
20260509155206 61 302 6.0 14.0 0.00 0.00 0.00 40
20260509154205 61 280 4.0 9.0 0.00 0.00 0.00 40
20260509153206 61 264 3.0 7.0 0.00 0.00 0.00 40
20260509152206 60 286 4.0 7.0 0.00 0.00 0.00 41
20260509151205 60 286 5.0 9.0 0.00 0.00 0.00 41
20260509150206 60 305 2.0 10.0 0.00 0.00 0.00 42
20260509145206 60 304 5.0 10.0 0.00 0.00 0.00 41
20260509144205 60 335 5.0 15.0 0.00 0.00 0.00 40
20260509143205 60 323 5.0 12.0 0.00 0.00 0.00 40
20260509142205 60 326 3.0 10.0 0.00 0.00 0.00 42
20260509140205 59 355 5.0 9.0 0.00 0.00 0.00 45
20260509135206 59 248 3.0 8.0 0.00 0.00 0.00 47
20260509134205 59 239 2.0 7.0 0.00 0.00 0.00 48
20260509132205 58 242 1.0 7.0 0.00 0.00 0.00 54
20260509131206 58 257 2.0 5.0 0.00 0.00 0.00 51
20260509130206 58 246 2.0 6.0 0.00 0.00 0.00 50
20260509125206 57 249 1.0 3.0 0.00 0.00 0.00 52
20260509124206 56 295 2.0 7.0 0.00 0.00 0.00 54
20260509123205 55 258 2.0 6.0 0.00 0.00 0.00 57
20260509120206 53 218 1.0 2.0 0.00 0.00 0.00 60
20260509115206 51 223 1.0 2.0 0.00 0.00 0.00 62
20260509114206 50 285 0.0 1.0 0.00 0.00 0.00 64
20260509113205 50 283 0.0 0.0 0.00 0.00 0.00 68
20260509111205 49 264 0.0 1.0 0.00 0.00 0.00 71
20260509110206 49 249 0.0 2.0 0.00 0.00 0.00 73
20260509105206 49 232 0.0 0.0 0.00 0.00 0.00 74
20260509103206 50 239 0.0 2.0 0.00 0.00 0.00 78
20260509102206 50 321 1.0 3.0 0.00 0.00 0.00 80
20260509101206 51 281 0.0 1.0 0.00 0.00 0.00 79
20260509100205 51 289 1.0 2.0 0.00 0.00 0.00 77
20260509095206 52 243 0.0 2.0 0.00 0.00 0.00 74
20260509094206 53 239 1.0 3.0 0.00 0.00 0.00 72
20260509093206 53 277 1.0 3.0 0.00 0.00 0.00 73
20260509092205 54 244 2.0 7.0 0.00 0.00 0.00 73
20260509091206 54 233 1.0 5.0 0.00 0.00 0.00 72
20260509090206 55 240 2.0 5.0 0.00 0.00 0.00 71
20260509085206 55 229 2.0 6.0 0.00 0.00 0.00 73
20260509084206 56 229 2.0 10.0 0.00 0.00 0.00 73
20260509083209 56 278 5.0 8.0 0.00 0.00 0.00 74
20260509082206 56 287 3.0 7.0 0.00 0.00 0.00 75
20260509081205 56 233 2.0 8.0 0.00 0.00 0.00 73
20260509080206 56 257 5.0 12.0 0.00 0.00 0.00 73
20260509075205 57 280 3.0 16.0 0.00 0.00 0.00 72
20260509074205 57 282 5.0 12.0 0.00 0.00 0.00 70
20260509073205 57 262 3.0 9.0 0.00 0.00 0.00 69
20260509072205 57 256 4.0 10.0 0.00 0.00 0.00 68
20260509070205 58 264 4.0 12.0 0.00 0.00 0.00 65
20260509065206 58 246 6.0 17.0 0.00 0.00 0.00 63
20260509064206 58 242 6.0 12.0 0.00 0.00 0.00 62
20260509062206 59 253 6.0 14.0 0.00 0.00 0.00 59
20260509060206 59 262 6.0 12.0 0.00 0.00 0.00 56
20260509055206 59 268 5.0 12.0 0.00 0.00 0.00 54
20260509053206 60 227 6.0 12.0 0.00 0.00 0.00 51
20260509052205 61 224 5.0 10.0 0.00 0.00 0.00 51
20260509051205 61 247 4.0 12.0 0.00 0.00 0.00 50
20260509050206 62 242 5.0 17.0 0.00 0.00 0.00 48
20260509045206 62 229 6.0 10.0 0.00 0.00 0.00 46
20260509044206 62 233 5.0 14.0 0.00 0.00 0.00 44
20260509043209 63 220 3.0 14.0 0.00 0.00 0.00 44
20260509042205 63 260 6.0 14.0 0.00 0.00 0.00 44
20260509041206 63 270 4.0 12.0 0.00 0.00 0.00 41
20260509035206 61 231 5.0 10.0 0.00 0.00 0.00 45
20260509034206 61 230 4.0 9.0 0.00 0.00 0.00 45
20260509033206 61 243 4.0 10.0 0.00 0.00 0.00 44
20260509032206 61 224 2.0 8.0 0.00 0.00 0.00 42
20260509031206 61 232 3.0 8.0 0.00 0.00 0.00 39
20260509030205 61 155 1.0 5.0 0.00 0.00 0.00 37
20260509025206 61 237 1.0 6.0 0.00 0.00 0.00 36
20260509024206 61 215 1.0 6.0 0.00 0.00 0.00 37
20260509023206 62 231 2.0 6.0 0.00 0.00 0.00 35
20260509022206 62 251 1.0 6.0 0.00 0.00 0.00 36
20260509021206 62 193 1.0 3.0 0.00 0.00 0.00 35
20260509020206 62 220 1.0 3.0 0.00 0.00 0.00 36
20260509015206 62 239 1.0 5.0 0.00 0.00 0.00 36
20260509014206 63 230 1.0 3.0 0.00 0.00 0.00 35
20260509013206 62 157 1.0 5.0 0.00 0.00 0.00 34
20260509012205 63 277 1.0 2.0 0.00 0.00 0.00 36
20260509011206 64 224 0.0 1.0 0.00 0.00 0.00 34
20260509010206 65 216 0.0 2.0 0.00 0.00 0.00 31
20260509005206 65 220 0.0 3.0 0.00 0.00 0.00 30
20260509004206 66 251 1.0 5.0 0.00 0.00 0.00 29
20260509003209 66 213 3.0 6.0 0.00 0.00 0.00 28
20260509002205 67 236 3.0 8.0 0.00 0.00 0.00 28
20260509001206 67 254 5.0 9.0 0.00 0.00 0.00 27
20260509000206 68 275 3.0 10.0 0.00 0.00 0.00 26
20260508235205 68 225 3.0 9.0 0.00 0.00 0.00 26
20260508234205 68 264 3.0 10.0 0.00 0.00 0.00 25
20260508232206 69 238 5.0 13.0 0.00 0.00 0.00 25
20260508231206 69 259 3.0 13.0 0.00 0.00 0.00 24
20260508230206 69 298 5.0 14.0 0.00 0.00 0.00 24
20260508225205 69 238 6.0 15.0 0.00 0.00 0.00 23
20260508224206 69 252 5.0 16.0 0.00 0.00 0.00 24
20260508223205 69 237 4.0 12.0 0.00 0.00 0.00 24
20260508222205 68 261 7.0 13.0 0.00 0.00 0.00 24
20260508221206 68 284 7.0 15.0 0.00 0.00 0.00 25
20260508214206 69 236 5.0 14.0 0.00 0.00 0.00 23
20260508213206 68 319 4.0 12.0 0.00 0.00 0.00 22
20260508212206 69 283 7.0 15.0 0.00 0.00 0.00 21
20260508211205 68 275 8.0 16.0 0.00 0.00 0.00 23
20260508210206 68 259 3.0 13.0 0.00 0.00 0.00 23
20260508205206 69 267 8.0 14.0 0.00 0.00 0.00 22
20260508204205 69 231 3.0 15.0 0.00 0.00 0.00 24
20260508202213 69 254 7.0 15.0 0.00 0.00 0.00 22
20260508201206 68 283 6.0 16.0 0.00 0.00 0.00 22
20260508200206 68 285 5.0 12.0 0.00 0.00 0.00 22
20260508195206 68 235 6.0 15.0 0.00 0.00 0.00 21
20260508194205 69 298 4.0 9.0 0.00 0.00 0.00 22
20260508193206 68 298 6.0 16.0 0.00 0.00 0.00 22
20260508192205 68 244 7.0 14.0 0.00 0.00 0.00 21
20260508191206 68 287 5.0 14.0 0.00 0.00 0.00 20
20260508190206 68 226 5.0 14.0 0.00 0.00 0.00 22
20260508185205 69 238 5.0 12.0 0.00 0.00 0.00 23
20260508184205 68 255 3.0 12.0 0.00 0.00 0.00 24
20260508183206 67 297 7.0 17.0 0.00 0.00 0.00 22
20260508182206 68 335 4.0 12.0 0.00 0.00 0.00 21
20260508181206 68 290 3.0 15.0 0.00 0.00 0.00 23